Flag Weather past 2 weeks in Uppsala, Sweden

Now
36 °F

Fog.


Feels Like: 32 °F
Forecast: 25 / 34 °F
Wind: 5 mph from North

Location: Stockholm / Arlanda

Current Time: Nov 27, 2014 at 1:14:32 PM

Latest Report: Nov 27, 2014 at 12:50 PM


Visibility: 6 mi

Pressure: 30.24 "Hg

Humidity: 100%

Dew point: 36 °F

Location of UppsalaLocation

Historic Weather in Uppsala — Graph

°F

Uppsala temperature yesterday

Maximum temperature yesterday: 32 °F (at 12:20 AM)
Minimum temperature yesterday: 28 °F (at 3:50 AM)
Average temperature yesterday: 30 °F

Past Weeks' High & Low Weather Summary

 TemperatureHumidityPressure
High48 °F (Nov 12, 12:50 PM)100% (Nov 12, 3:50 PM)30.48 "Hg (Nov 12, 3:50 PM)
Low28 °F (Nov 26, 3:50 AM)61% (Nov 18, 6:50 PM)29.83 "Hg (Nov 24, 4:50 PM)
Average39 °F90%30.27 "Hg
* Reported Nov 12 12:20 PM — Nov 27 12:20 PM, Uppsala, Weather by CustomWeather, © 2014

Note: Actual official high and low records may vary slightly from our data, if they occured in-between our weather recording intervals... More about our weather records

Advertising

Uppsala weather history for previous 24 hours

 ConditionsComfort  
Time TempWeatherWind HumidityBarometerVisibility
12:20 PM
Nov 27
36 °FFog.No wind100%30.24 "Hg6 mi
11:50 AM36 °FFog.2 mph100%30.24 "Hg6 mi
11:20 AM36 °FFog.2 mph100%30.24 "Hg6 mi
10:50 AM36 °FFog.3 mph100%30.24 "Hg6 mi
10:20 AM34 °FFog.2 mph100%30.24 "Hg6 mi
9:20 AM34 °FFog.2 mph100%30.24 "Hg6 mi
8:50 AM34 °FFog.1 mph100%30.24 "Hg5 mi
8:20 AM34 °FFog.3 mph100%30.24 "Hg6 mi
7:50 AM34 °FSleet. Fog.3 mph100%30.24 "HgN/A
7:20 AM34 °FPassing clouds.6 mph100%30.24 "HgN/A
6:50 AM34 °FPassing clouds.5 mph100%30.24 "HgN/A
6:20 AM32 °FPassing clouds.7 mph100%30.24 "HgN/A
5:50 AM32 °FPassing clouds.5 mph100%30.24 "HgN/A
5:20 AM32 °FPassing clouds.2 mph100%30.24 "HgN/A
4:50 AM32 °FPassing clouds.1 mph100%30.24 "HgN/A
4:20 AM32 °FPassing clouds.No wind100%30.24 "HgN/A
3:50 AM32 °FPassing clouds.No wind100%30.24 "HgN/A
3:20 AM32 °FPassing clouds.No wind100%30.24 "HgN/A
2:50 AM32 °FPassing clouds.No wind100%30.24 "HgN/A
2:20 AM32 °FPassing clouds.No wind100%30.24 "HgN/A
1:50 AM32 °FPassing clouds.No wind100%30.24 "HgN/A
1:20 AM32 °FIce fog.2 mph100%30.24 "Hg6 mi
12:50 AM32 °FIce fog.3 mph100%30.24 "Hg6 mi
12:20 AM30 °FIce fog.3 mph100%30.24 "Hg6 mi
11:50 PM
Nov 26
30 °FIce fog.2 mph100%30.27 "Hg3 mi
11:20 PM30 °FIce fog.2 mph100%30.27 "Hg4 mi
10:50 PM30 °FIce fog.3 mph100%30.27 "Hg4 mi
10:20 PM30 °FIce fog.2 mph100%30.27 "Hg3 mi
9:50 PM30 °FIce fog.5 mph100%30.27 "Hg1 mi
9:20 PM30 °FIce fog.2 mph100%30.27 "Hg0 mi
8:50 PM30 °FIce fog.3 mph100%30.27 "Hg0 mi
8:20 PM30 °FIce fog.3 mph100%30.27 "Hg0 mi
7:50 PM30 °FIce fog.3 mph100%30.27 "Hg0 mi
7:20 PM30 °FIce fog.3 mph100%30.27 "Hg0 mi
6:50 PM30 °FIce fog.2 mph100%30.27 "Hg0 mi
6:20 PM30 °FIce fog.2 mph100%30.24 "Hg0 mi
5:50 PM30 °FIce fog.2 mph100%30.27 "Hg0 mi
5:20 PM30 °FIce fog.1 mph100%30.27 "Hg0 mi
4:50 PM30 °FIce fog.1 mph100%30.27 "Hg0 mi
4:20 PM30 °FIce fog.2 mph100%30.27 "Hg0 mi
3:50 PM30 °FIce fog.1 mph100%30.27 "Hg0 mi
3:20 PM30 °FIce fog.1 mph100%30.27 "Hg0 mi
2:50 PM30 °FIce fog.3 mph100%30.27 "Hg0 mi
2:20 PM30 °FIce fog.2 mph100%30.27 "Hg0 mi
1:50 PM30 °FIce fog.2 mph100%30.27 "Hg0 mi
1:20 PM30 °FIce fog.1 mph100%30.27 "Hg0 mi
Weather by CustomWeather, © 2014

See weather overviewHow to use our weather pages